Preview of NWS' New Version of Forecast
This preview is not operational and should not be used for support decisions.

Regional Weather Roundup (RWR)

Issued by Philadelphia/Mt Holly (PHI)

                            
000
ASUS41 KPHI 172012
RWRPHI

REGIONAL WEATHER ROUNDUP
NATIONAL WEATHER SERVICE MOUNT HOLLY NJ
400 PM EDT TUE SEP 17 2019

NOTE:  "FAIR" INDICATES FEW OR NO CLOUDS BELOW 12,000 FEET WITH NO
SIGNIFICANT WEATHER AND/OR OBSTRUCTIONS TO VISIBILITY.

 * = STATION DOES NOT REPORT PRECIPITATION (E.G. RAIN, SNOW, ETC.) 
        OR FOG.

NJZ015>026-172100-
SOUTHERN NEW JERSEY
  
CITY           SKY/WX    TMP DP  RH WIND       PRES   REMARKS
POMONA         FAIR      74  49  41 E8        30.09F                  
WILDWOOD*      FAIR      73  52  47 E12G21    30.10F                  
MILLVILLE      FAIR      80  46  30 VRB7      30.08F                  
WRIGHTSTOWN    FAIR      78  45  30 N7        30.09F                  
MOUNT HOLLY    FAIR      78  49  35 VRB7      30.08F                  
TRENTON        FAIR      77  44  30 CALM      30.09F                  

$$
NJZ001>014-172100-
NORTHERN NEW JERSEY
  
CITY           SKY/WX    TMP DP  RH WIND       PRES   REMARKS
SUSSEX         FAIR      77  43  29 MISG      30.10F                  
ANDOVER*         N/A     77  49  37 N3        30.11F                  
MORRISTOWN     SUNNY     75  48  38 NE6G14    30.11F                  
NEWARK         FAIR      77  39  25 NE10G20   30.09F                  
TETERBORO      FAIR      78  38  23 N12G20    30.08F                  
CALDWELL       FAIR      78  41  26 VRB7      30.10F                  
SOMERVILLE     FAIR      79  40  24 N9        30.08F                  
ALLAIRE*       FAIR      76  43  30 N8        30.11F                  
TOMS RIVER*    FAIR      74  51  44 E9        30.10F                  

$$
PAZ043-044-047-054-055-060>062-066>071-172100-
EASTERN PENNSYLVANIA
  
CITY           SKY/WX    TMP DP  RH WIND       PRES   REMARKS
PHILADELPHIA   FAIR      79  44  28 CALM      30.09F                  
NORTH PHILA    FAIR      80  46  30 VRB6      30.11S                  
BLUE BELL*     FAIR      76  49  38 CALM      30.10F                  
DOYLESTOWN     FAIR      81  47  30 VRB7      30.10F                  
QUAKERTOWN*    SUNNY     77  48  36 VRB3      30.11                   
PERKASIE*      FAIR      75  46  35 NE10G16   30.12F                  
POTTSTOWN      FAIR      76  47  35 N7        30.12F                  
LANCASTER      FAIR      79  49  34 NE13      30.10F                  
COATESVILLE    FAIR      75  48  38 N13       30.12F                  
WEST CHESTER   FAIR      79  43  27 N9        30.10F                  
READING        FAIR      77  50  38 VRB6      30.09F                  
ALLENTOWN      FAIR      79  47  32 MISG      30.10F                  
QN CITY/ALNTWN FAIR      77  48  36 N5        30.11F                  
MOUNT POCONO   FAIR      71  42  35 N16       30.15F                  
HAZLETON       FAIR      70  43  37 NW8       30.18F                  
LEHIGHTON      FAIR      77  43  29 N3        30.11F                  
WILKES BARRE   FAIR      77  44  30 N9        30.13F                  

$$
DEZALL-MDZ008-012-015-019-020-172100-
DELAWARE AND EASTERN MARYLAND
  
CITY           SKY/WX    TMP DP  RH WIND       PRES   REMARKS
WILMINGTON     FAIR      81  50  33 NE13      30.09F                  
DOVER          FAIR      76  56  49 SE9       30.08F                  
CHESWOLD       PTCLDY    79  54  41 NE6G15    30.08F                  
GEORGETOWN     FAIR      75  56  51 E13       30.10S                  
EASTON         PTSUNNY   79  57  47 NE6       30.11F                  
STEVENSVILLE   FAIR      79  59  50 N9        30.08F                  
ABERDEEN       MOSUNNY   79  54  41 CALM      30.08F                  
PATUXENT       CLOUDY    78  60  53 NE10      30.06F                  
OCEAN CITY     FAIR      73  55  53 NE13      30.09S                  
WALLOPS ISLAND FAIR      74  59  59 NE20      30.08R                  
CAMBRIDGE      CLOUDY    75  59  57 NE8G14    30.07F                  
SALISBURY      FAIR      76  55  48 E12       30.08S                  

$$
PAZ001-021-NYZ056-072-MDZ011-DCZ001-172100-
OTHER NEARBY LOCATIONS
  
CITY           SKY/WX    TMP DP  RH WIND       PRES   REMARKS
HARRISBURG     FAIR      81  47  30 E6        30.09F                  
STATE COLLEGE  SUNNY     73  46  38 NE5       30.15F                  
WILLIAMSPORT   FAIR      78  44  29 NE9       30.12F                  
BINGHAMTON     FAIR      69  43  38 NE9       30.17F                  
NEW YORK CITY  FAIR      75  41  29 CALM      30.12F                  
BALTIMORE      FAIR      81  57  43 E7        30.08F                  
WASHINGTON DC  PTSUNNY   80  60  50 NE9       30.08F                  

$$